DateTimeUTC,F1_A11,F1_S11,BsB_S11,BsG_S11,BsR_S11,BbsB_S11,BbsG_S11,BbsR_S11,BaB_A11,BaG_A11,BaR_A11,Tu_S11,T_S11,Uu_S11,U_S11,P_S11,T1_A11
2021-05-26T22:00:00Z,00000200,20000000,,,,,,,-000.37,-000.18,-000.10,19.0,25.5,10.8,07.2,0678.9,31.0
2021-05-26T22:01:00Z,00000200,20000000,,,,,,,0000.26,0000.10,-000.04,19.0,25.6,10.6,07.1,0678.9,31.0
2021-05-26T22:02:00Z,00000200,20000000,,,,,,,-000.06,0000.08,0000.01,19.0,25.6,10.5,07.0,0678.9,31.0
2021-05-26T22:03:00Z,00000200,60000000,,,,,,,0000.28,0000.39,0000.20,19.0,25.6,10.5,07.0,0678.9,31.0
2021-05-26T22:04:00Z,00000200,40000000,0001.53,0000.84,0000.56,0000.90,-000.24,0000.01,-000.28,-000.18,0000.00,19.1,25.4,10.5,07.1,0679.9,31.0
2021-05-26T22:05:00Z,00000200,00000000,0001.31,0000.95,0000.84,0000.52,0000.00,0000.17,0000.29,-000.08,0000.01,19.1,25.4,10.4,07.1,0680.0,31.0
2021-05-26T22:06:00Z,00000200,00000000,0001.03,0000.95,0000.66,0000.45,0000.30,0000.24,-000.37,-000.15,-000.35,19.1,25.4,10.4,07.1,0680.0,31.1
2021-05-26T22:07:00Z,00000200,00000000,0001.91,0000.94,0000.69,0000.40,0000.17,0000.15,-000.15,-000.07,0000.27,19.1,25.4,10.3,07.0,0680.0,31.0
2021-05-26T22:08:00Z,00000200,00000000,0001.77,0000.86,0000.57,-000.02,0000.26,-000.16,0000.13,0000.37,-000.01,19.1,25.4,10.4,07.1,0679.9,31.0
2021-05-26T22:09:00Z,00000200,00000000,0001.51,0000.82,0000.81,0000.27,0000.19,-000.09,0000.77,0000.18,0000.78,19.1,25.4,10.4,07.1,0679.9,31.0
2021-05-26T22:10:00Z,00000200,00000000,0001.30,0000.86,0000.86,0000.72,0000.13,-000.01,-000.16,0000.23,-000.33,19.1,25.4,10.5,07.2,0679.9,31.0
2021-05-26T22:11:00Z,00000200,00000000,0001.91,0000.93,0000.78,0000.60,-000.22,0000.17,-000.00,-000.20,0000.36,19.1,25.3,10.5,07.2,0679.9,31.0
2021-05-26T22:12:00Z,00000200,00000000,0001.55,0000.97,0000.79,0000.21,0000.06,-000.05,-000.34,-000.36,-000.22,19.1,25.3,10.3,07.1,0680.0,31.0
2021-05-26T22:13:00Z,00000200,00000000,0001.04,0000.59,0000.64,0000.16,0000.14,0000.18,0000.52,0000.58,0000.19,19.1,25.3,10.4,07.1,0680.0,31.0
2021-05-26T22:14:00Z,00000200,00000000,0001.48,0000.89,0000.51,0000.60,0000.12,-000.21,-000.09,0000.23,0000.43,19.1,25.3,10.5,07.2,0680.0,31.0
2021-05-26T22:15:00Z,00000200,00000000,0001.41,0000.96,0000.96,0000.57,0000.03,0000.18,0000.33,-000.05,-000.28,19.1,25.3,10.5,07.2,0680.0,31.0
2021-05-26T22:16:00Z,00000200,00000000,0001.33,0000.73,0000.78,-000.07,0000.13,0000.13,-000.20,0000.24,0000.28,19.1,25.3,10.5,07.2,0680.0,31.0
2021-05-26T22:17:00Z,00000200,00000000,0001.08,0000.62,0000.72,0000.50,0000.07,0000.07,0000.10,0000.06,-000.20,19.1,25.3,10.4,07.1,0680.0,31.1
2021-05-26T22:18:00Z,00000200,00000000,0000.30,0000.89,0000.64,0000.41,0000.15,-000.07,0000.09,-000.15,0000.05,19.1,25.3,10.5,07.2,0680.0,31.0
2021-05-26T22:19:00Z,00000200,00000000,0000.66,0001.11,0000.50,0000.13,0000.13,0000.14,-000.14,0000.05,-000.27,19.1,25.3,10.3,07.1,0680.0,31.0
2021-05-26T22:20:00Z,00000200,00000000,0000.76,0000.83,0000.66,0000.45,-000.05,-000.19,0000.50,0000.26,0000.73,19.1,25.3,10.4,07.1,0679.9,31.0
2021-05-26T22:21:00Z,00000200,00000000,0000.92,0001.09,0000.32,0000.44,0000.19,-000.03,0000.11,0000.46,0000.29,19.1,25.3,10.5,07.2,0679.9,31.0
2021-05-26T22:22:00Z,00000200,00000000,0001.16,0000.56,0000.66,0000.21,0000.00,0000.11,0000.05,-000.31,-000.11,19.1,25.3,10.6,07.2,0679.9,31.0
2021-05-26T22:23:00Z,00000200,00000000,0001.74,0000.92,0000.30,0000.41,-000.16,0000.37,-000.15,0000.07,0000.56,19.1,25.3,10.6,07.3,0679.9,31.0
2021-05-26T22:24:00Z,00000200,00000000,0001.24,0000.72,0000.68,0000.17,0000.12,0000.25,0000.06,-000.05,-000.46,19.1,25.3,10.6,07.2,0679.9,31.0
2021-05-26T22:25:00Z,00000200,00000000,0001.87,0000.89,0000.70,0000.57,0000.12,-000.14,-000.45,-000.11,-000.24,19.1,25.3,10.5,07.2,0679.9,31.0
2021-05-26T22:26:00Z,00000200,00000000,0001.63,0000.84,0000.51,0000.47,-000.04,0000.07,0001.16,0000.59,0000.35,19.1,25.3,10.4,07.1,0679.9,31.0
2021-05-26T22:27:00Z,00000200,00000000,0001.31,0000.55,0000.58,0000.53,0000.15,-000.30,-000.31,0000.02,0000.19,19.1,25.3,10.5,07.2,0679.9,31.0
2021-05-26T22:28:00Z,00000200,00000000,0000.71,0000.73,0000.63,0000.36,0000.07,0000.15,-000.06,-000.11,-000.06,19.1,25.3,10.6,07.3,0679.9,31.0
2021-05-26T22:29:00Z,00000200,00000000,0001.21,0000.72,0000.28,0000.34,-000.05,-000.04,-000.08,-000.03,-000.15,19.1,25.3,10.6,07.3,0679.9,31.0
2021-05-26T22:30:00Z,00000200,00000000,0000.77,0000.56,0000.36,0000.51,0000.10,-000.02,0000.51,0000.17,0000.79,19.1,25.2,10.5,07.2,0679.9,31.1
2021-05-26T22:31:00Z,00000200,00000000,0001.47,0000.44,0000.27,0000.14,0000.00,-000.12,-000.03,0000.21,0000.24,19.0,25.2,10.7,07.3,0680.0,31.0
2021-05-26T22:32:00Z,00000200,00000000,0000.90,0000.47,0000.24,0000.25,-000.10,0000.12,-000.44,-000.18,-000.60,19.0,25.2,10.5,07.2,0680.0,31.0
2021-05-26T22:33:00Z,00000200,00000000,0000.63,0000.51,0000.15,0000.45,0000.01,0000.04,0000.25,0000.33,0000.27,19.0,25.2,10.5,07.2,0680.0,31.1
2021-05-26T22:34:00Z,00000200,00000000,0001.07,0000.47,0000.33,0000.33,0000.23,0000.15,0000.10,-000.31,-000.14,19.0,25.2,10.3,07.1,0680.0,31.0
2021-05-26T22:35:00Z,00000200,00000000,0000.70,0000.38,0000.53,0000.12,0000.19,0000.06,-000.31,-000.33,-000.38,19.0,25.2,10.4,07.1,0679.9,31.1
2021-05-26T22:36:00Z,00000200,00000000,0000.89,0000.63,0000.52,-000.05,0000.28,-000.01,0000.24,0000.12,0000.25,19.0,25.2,10.3,07.0,0679.9,31.0
2021-05-26T22:37:00Z,00000200,00000000,0001.00,0000.40,0000.52,0000.18,-000.13,0000.07,-000.26,-000.41,-000.02,19.0,25.2,10.3,07.0,0679.9,31.0
2021-05-26T22:38:00Z,00000200,00000000,0000.12,0000.85,0000.41,0000.42,0000.26,-000.12,-000.09,0000.47,-000.08,19.0,25.2,10.2,07.0,0679.9,31.0
2021-05-26T22:39:00Z,00000200,00000000,0001.24,0000.36,0000.31,0000.56,0000.21,-000.17,0000.07,0000.07,0000.10,19.0,25.2,10.2,07.0,0679.9,31.0
2021-05-26T22:40:00Z,00000200,00000000,0000.58,0000.16,0000.17,0000.41,0000.09,0000.24,0000.15,0000.23,0000.31,19.0,25.2,10.2,07.0,0679.9,31.0
2021-05-26T22:41:00Z,00000200,00000000,0001.21,0000.28,0000.10,0000.78,-000.22,0000.07,0000.06,-000.42,-000.02,19.0,25.2,10.2,07.0,0679.9,31.0
2021-05-26T22:42:00Z,00000200,00000000,0000.58,0000.26,0000.05,0000.57,-000.15,-000.16,0000.37,0000.39,0000.14,19.0,25.2,10.2,07.0,0679.9,31.0
2021-05-26T22:43:00Z,00000200,00000000,0000.77,0000.19,0000.15,0000.56,-000.17,0000.07,-000.16,0000.37,0000.13,19.0,25.2,10.3,07.1,0679.9,31.1
2021-05-26T22:44:00Z,00000200,00000000,0000.48,0000.38,0000.07,-000.02,-000.01,-000.13,-000.00,-000.35,-000.04,19.0,25.2,10.3,07.1,0679.8,31.0
2021-05-26T22:45:00Z,00000200,00000000,0000.78,0000.35,0000.48,0000.56,0000.05,0000.19,-000.14,-000.02,0000.02,19.0,25.2,10.3,07.0,0679.8,31.0
2021-05-26T22:46:00Z,00000200,00000000,0001.06,0000.59,0000.47,-000.04,0000.22,0000.23,-000.34,0000.15,-000.08,19.0,25.2,10.1,06.9,0679.8,31.0
2021-05-26T22:47:00Z,00000200,00000000,0000.75,0000.44,0000.28,0000.02,0000.25,0000.24,0000.51,-000.11,0000.00,19.0,25.2,10.1,06.9,0679.8,31.0
2021-05-26T22:48:00Z,00000200,00000000,0000.58,0000.13,0000.36,-000.03,0000.11,0000.22,0000.57,0000.41,0000.56,19.0,25.2,10.1,07.0,0679.8,31.0
2021-05-26T22:49:00Z,00000200,00000000,0001.13,0000.11,0000.31,0000.22,0000.37,-000.04,-000.20,0000.29,-000.14,19.0,25.2,10.3,07.1,0679.8,31.0
2021-05-26T22:50:00Z,00000200,00000000,0000.51,0000.45,0000.39,0000.50,0000.08,0000.29,-000.18,-000.27,-000.08,19.0,25.2,10.3,07.0,0679.8,31.0
2021-05-26T22:51:00Z,00000200,00000000,0000.42,0000.35,0000.23,0000.20,-000.03,0000.02,-000.02,-000.36,-000.19,18.9,25.2,09.7,06.7,0679.8,31.0
2021-05-26T22:52:00Z,00000200,00000000,0000.05,0000.29,0000.29,0000.34,-000.16,0000.07,0001.02,0001.28,0001.10,18.9,25.2,10.4,07.1,0679.8,31.0
2021-05-26T22:53:00Z,00000200,00000000,0000.41,0000.32,0000.15,0000.27,-000.27,-000.02,0000.25,0000.28,0000.44,18.9,25.1,10.7,07.3,0679.8,31.0
2021-05-26T22:54:00Z,00000200,00000000,-000.02,0000.10,0000.25,0000.34,0000.02,-000.19,0000.09,0000.58,0000.15,18.9,25.1,10.9,07.4,0679.8,31.0
2021-05-26T22:55:00Z,00000200,00000000,0000.71,0000.15,0000.21,0000.59,0000.08,0000.15,0000.33,-000.08,0000.34,18.9,25.1,11.0,07.5,0679.8,31.0
2021-05-26T22:56:00Z,00000200,00000000,0000.97,0000.74,0000.40,0000.40,0000.06,0000.19,-000.26,-000.48,-000.41,18.9,25.1,11.0,07.5,0679.8,31.0
2021-05-26T22:57:00Z,00000200,40000000,,,,,,,-000.08,0000.37,0000.20,19.0,25.1,10.4,07.2,0679.8,31.0
2021-05-26T22:58:00Z,00000200,60000000,,,,,,,0000.57,0000.09,0000.10,18.7,25.3,10.9,07.2,0678.8,31.0
2021-05-26T22:59:00Z,00000200,20000000,,,,,,,-000.01,-000.06,0000.26,18.7,25.4,10.9,07.2,0678.8,31.0
